Juneau, WI

7:30 AM CDT on March 23, 2017 (GMT -0500)
Dodge County

Weather History for KUNU - April, 2014

Change the Weather History Date:

Monday, April 28, 2014

  Actual Average Record
Temperature  
Mean Temperature 44 °F -  
Max Temperature 47 °F 59 °F 84 °F (1986)
Min Temperature 41 °F 40 °F 28 °F (2005)
Degree Days  
Heating Degree Days 21    
Moisture  
Dew Point 35 °F    
Average Humidity 70    
Maximum Humidity 85    
Minimum Humidity 58    
Precipitation  
Precipitation 0.12 in - - ()
Sea Level Pressure  
Sea Level Pressure 29.75 in    
Wind  
Wind Speed 23 mph (East)    
Max Wind Speed 31 mph    
Max Gust Speed 45 mph    
Visibility 10 miles    
Events Rain , Thunderstorm    
Averages and records for this station are not official NWS values.
T = Trace of Precipitation, MM = Missing Value Source: NWS Daily Summary

Daily Weather History Graph

Daily Weather History Graph

Search for Another Location

Airport or City:

Trip Planner

Search our weather history database for the weather conditions in past years. The results will help you decide how hot, cold, wet, or windy it might be!

Date:

Astronomy

Apr. 28, 2014 Rise Set
Actual Time 5:51 AM CDT 7:53 PM CDT
Civil Twilight 5:21 AM CDT 8:24 PM CDT
Nautical Twilight 4:43 AM CDT 9:02 PM CDT
Astronomical Twilight 4:01 AM CDT 9:44 PM CDT
Moon 5:31 AM CDT (4/28) 7:30 PM CDT (4/28)
Length of Visible Light 15h 03m
Length of Day
14h 01m
Waning Crescent, 0% of the Moon is Illuminated
Apr 28
Waning Crescent
Apr 29
New
May 6
First Quarter
May 14
Full
May 21
Last Quarter

Hourly Weather History & Observations

Time (CDT) Temp. Windchill Dew Point Humidity Pressure Visibility Wind Dir Wind Speed Gust Speed Precip Events Conditions
12:15 AM 45.0 °F 36.9 °F 32.4 °F 61% 29.89 in 10.0 mi East 20.7 mph 25.3 mph N/A   Overcast
12:35 AM 44.6 °F 36.6 °F 32.7 °F 63% 29.89 in 10.0 mi East 19.6 mph 26.5 mph N/A   Overcast
12:55 AM 44.6 °F 36.4 °F 32.4 °F 62% 29.89 in 10.0 mi East 20.7 mph 25.3 mph N/A   Overcast
1:15 AM 44.2 °F 35.9 °F 32.7 °F 64% 29.88 in 10.0 mi East 20.7 mph 29.9 mph N/A   Overcast
1:35 AM 43.7 °F 34.7 °F 33.8 °F 68% 29.87 in 10.0 mi East 23.0 mph 29.9 mph N/A   Overcast
1:55 AM 43.3 °F 34.0 °F 33.1 °F 67% 29.87 in 10.0 mi East 24.2 mph 31.1 mph N/A   Overcast
2:15 AM 43.7 °F 35.2 °F 32.9 °F 66% 29.87 in 10.0 mi East 20.7 mph 31.1 mph N/A   Overcast
2:35 AM 43.2 °F 34.2 °F 33.6 °F 69% 29.86 in 10.0 mi East 21.9 mph 32.2 mph N/A   Light Drizzle
2:55 AM 42.4 °F 33.1 °F 34.7 °F 74% 29.85 in 10.0 mi East 23.0 mph 28.8 mph N/A Rain Light Rain
3:15 AM 42.3 °F 32.6 °F 34.9 °F 75% 29.83 in 10.0 mi East 24.2 mph 34.5 mph N/A   Mostly Cloudy
3:35 AM 42.4 °F 32.4 °F 34.3 °F 73% 29.82 in 10.0 mi East 26.5 mph 33.4 mph N/A Rain Rain
3:55 AM 42.4 °F 32.6 °F 33.4 °F 70% 29.81 in 10.0 mi East 25.3 mph 39.1 mph N/A   Mostly Cloudy
4:15 AM 42.4 °F 32.8 °F 33.1 °F 69% 29.81 in 10.0 mi East 24.2 mph 36.8 mph N/A   Overcast
4:35 AM 42.4 °F 32.6 °F 33.8 °F 71% 29.81 in 10.0 mi East 25.3 mph 36.8 mph N/A   Overcast
4:55 AM 42.8 °F 32.3 °F 32.5 °F 67% 29.81 in 10.0 mi East 29.9 mph 40.3 mph N/A   Overcast
5:15 AM 42.6 °F 32.6 °F 32.4 °F 67% 29.80 in 10.0 mi East 26.5 mph 35.7 mph N/A   Overcast
5:35 AM 41.2 °F 30.7 °F 34.2 °F 76% 29.78 in 7.0 mi East 26.5 mph 36.8 mph N/A Rain Light Rain
5:55 AM 42.1 °F 31.9 °F 32.2 °F 68% 29.79 in 10.0 mi East 26.5 mph 36.8 mph N/A   Overcast
6:15 AM 42.4 °F 32.6 °F 31.6 °F 66% 29.79 in 10.0 mi East 25.3 mph 34.5 mph N/A   Overcast
6:35 AM 42.8 °F 32.9 °F 30.7 °F 62% 29.79 in 10.0 mi East 26.5 mph 39.1 mph N/A   Overcast
6:55 AM 43.2 °F 33.4 °F 29.8 °F 59% 29.80 in 10.0 mi East 26.5 mph 36.8 mph N/A   Overcast
7:15 AM 43.2 °F 33.6 °F 29.5 °F 59% 29.80 in 10.0 mi East 25.3 mph 36.8 mph N/A   Overcast
7:35 AM 43.3 °F 33.8 °F 29.8 °F 59% 29.80 in 10.0 mi East 25.3 mph 32.2 mph N/A   Overcast
7:55 AM 43.7 °F 34.5 °F 29.8 °F 58% 29.80 in 10.0 mi East 24.2 mph 38.0 mph N/A   Overcast
8:15 AM 43.7 °F 34.3 °F 30.2 °F 59% 29.80 in 10.0 mi East 25.3 mph 34.5 mph N/A   Overcast
8:55 AM 42.6 °F 32.8 °F 32.4 °F 67% 29.78 in 10.0 mi East 25.3 mph 35.7 mph N/A Rain Light Rain
9:15 AM 43.0 °F 33.3 °F 32.5 °F 67% 29.77 in 10.0 mi East 25.3 mph 36.8 mph N/A   Light Drizzle
9:35 AM 43.3 °F 33.4 °F 34.2 °F 70% 29.76 in 10.0 mi East 27.6 mph 39.1 mph N/A Rain Light Rain
9:55 AM 43.5 °F 34.0 °F 35.6 °F 74% 29.75 in 7.0 mi East 25.3 mph 36.8 mph N/A Rain Light Rain
10:10 AM 44.2 °F 34.4 °F 36.1 °F 73% 29.74 in 7.0 mi East 28.8 mph 41.4 mph N/A Rain Light Rain
10:35 AM 46.9 °F - 34.9 °F 63% 29.72 in 10.0 mi East 29.9 mph 44.9 mph N/A   Scattered Clouds
11:15 AM 46.4 °F 37.0 °F 33.8 °F 62% 29.74 in 10.0 mi East 31.1 mph 41.4 mph N/A Rain Rain
11:35 AM 44.4 °F 34.5 °F 34.7 °F 69% 29.76 in 7.0 mi East 29.9 mph 36.8 mph N/A Rain Light Rain
12:15 PM 42.8 °F 33.5 °F 36.1 °F 77% 29.77 in 4.0 mi East 23.0 mph 31.1 mph 0.01 in Rain Rain
12:35 PM 42.8 °F 34.0 °F 36.1 °F 77% 29.75 in 7.0 mi East 20.7 mph 29.9 mph 0.02 in Rain Light Rain
12:55 PM 44.1 °F 35.9 °F 36.7 °F 75% 29.74 in 10.0 mi ENE 19.6 mph 32.2 mph 0.02 in Rain Light Rain
1:15 PM 45.7 °F 37.4 °F 36.5 °F 70% 29.72 in 10.0 mi East 23.0 mph 33.4 mph N/A   Overcast
1:35 PM 45.5 °F 37.8 °F 35.4 °F 68% 29.72 in 10.0 mi East 19.6 mph 35.7 mph N/A   Overcast
1:55 PM 47.3 °F - 35.6 °F 64% 29.71 in 10.0 mi East 23.0 mph 34.5 mph N/A Rain Light Rain
2:15 PM 46.2 °F 37.3 °F 35.2 °F 66% 29.71 in 7.0 mi East 27.6 mph 35.7 mph N/A Rain Rain
2:35 PM 45.0 °F 36.2 °F 36.5 °F 72% 29.72 in 10.0 mi East 24.2 mph 38.0 mph 0.01 in Rain Light Rain
2:55 PM 45.5 °F 37.3 °F 37.2 °F 73% 29.72 in 10.0 mi East 21.9 mph 35.7 mph 0.01 in   Overcast
3:15 PM 45.5 °F 36.3 °F 37.6 °F 74% 29.71 in 10.0 mi East 27.6 mph 41.4 mph N/A   Overcast
3:35 PM 45.7 °F 37.4 °F 38.3 °F 75% 29.72 in 10.0 mi East 23.0 mph 35.7 mph N/A   Overcast
4:15 PM 46.0 °F 37.4 °F 39.2 °F 77% 29.68 in 10.0 mi ENE 25.3 mph 32.2 mph N/A   Overcast
4:35 PM 46.4 °F 37.9 °F 39.0 °F 75% 29.68 in 10.0 mi ENE 25.3 mph 33.4 mph N/A   Overcast
4:55 PM 46.6 °F - 38.3 °F 73% 29.68 in 10.0 mi ENE 18.4 mph 29.9 mph N/A   Overcast
5:15 PM 46.8 °F - 38.1 °F 72% 29.68 in 10.0 mi ENE 21.9 mph 29.9 mph N/A   Overcast
5:35 PM 47.3 °F - 37.4 °F 68% 29.69 in 10.0 mi ENE 17.3 mph 25.3 mph N/A   Overcast
5:55 PM 47.5 °F - 36.0 °F 64% 29.69 in 10.0 mi ENE 19.6 mph 26.5 mph N/A   Overcast
6:15 PM 47.3 °F - 35.2 °F 63% 29.68 in 10.0 mi ENE 17.3 mph 29.9 mph N/A   Overcast
6:35 PM 47.3 °F - 34.9 °F 62% 29.67 in 10.0 mi ENE 21.9 mph 28.8 mph N/A   Overcast
6:55 PM 47.3 °F - 34.7 °F 62% 29.66 in 10.0 mi ENE 20.7 mph 27.6 mph N/A   Overcast
7:15 PM 47.3 °F - 34.2 °F 60% 29.69 in 10.0 mi ENE 18.4 mph 25.3 mph N/A   Overcast
7:35 PM 47.7 °F - 34.0 °F 59% 29.71 in 10.0 mi ENE 15.0 mph 23.0 mph N/A   Overcast
7:55 PM 47.1 °F - 34.3 °F 61% 29.68 in 10.0 mi ENE 18.4 mph 25.3 mph N/A Rain Rain
8:15 PM 45.0 °F 36.9 °F 36.9 °F 73% 29.67 in 5.0 mi ENE 20.7 mph 28.8 mph 0.04 in Rain Rain
8:35 PM 44.6 °F 36.6 °F 38.1 °F 78% 29.70 in 10.0 mi East 19.6 mph 27.6 mph 0.07 in Rain , Thunderstorm Light Thunderstorms and Rain
8:55 PM 44.2 °F 35.4 °F 38.3 °F 80% 29.68 in 10.0 mi ENE 23.0 mph 31.1 mph 0.07 in Rain Rain
9:15 PM 43.7 °F 37.3 °F 38.8 °F 83% 29.70 in 10.0 mi ENE 12.7 mph 28.8 mph 0.02 in Rain Light Rain
9:55 PM 43.3 °F 35.2 °F 39.2 °F 85% 29.68 in 10.0 mi ENE 18.4 mph 24.2 mph 0.02 in   Overcast
10:15 PM 43.7 °F 35.7 °F 39.2 °F 84% 29.68 in 10.0 mi ENE 18.4 mph 24.2 mph N/A   Overcast
10:35 PM 43.7 °F 36.3 °F 38.3 °F 81% 29.69 in 10.0 mi ENE 16.1 mph - N/A   Overcast
10:55 PM 43.7 °F 36.9 °F 37.8 °F 80% 29.68 in 10.0 mi ENE 13.8 mph 23.0 mph N/A   Overcast
11:15 PM 43.3 °F 35.8 °F 37.4 °F 80% 29.66 in 10.0 mi ENE 16.1 mph 21.9 mph N/A   Overcast
11:35 PM 43.2 °F 35.9 °F 37.0 °F 79% 29.66 in 10.0 mi ENE 15.0 mph 19.6 mph N/A   Overcast
11:55 PM 43.0 °F 35.4 °F 36.9 °F 79% 29.64 in 10.0 mi NE 16.1 mph 21.9 mph N/A   Overcast